Daleville, AL

11:42 AM CST on December 09, 2016 (GMT -0600)
Cairns Army Air Field

Weather History for KOZR - January, 2013

Change the Weather History Date:

Thursday, January 24, 2013

  Actual Average Record
Temperature  
Mean Temperature 58 °F -  
Max Temperature 69 °F 58 °F 78 °F (2002)
Min Temperature 48 °F 37 °F 12 °F (2003)
Degree Days  
Heating Degree Days 6    
Growing Degree Days 8 (Base 50)    
Moisture  
Dew Point 50 °F    
Average Humidity 75    
Maximum Humidity 93    
Minimum Humidity 55    
Precipitation  
Precipitation 0.00 in - - ()
Sea Level Pressure  
Sea Level Pressure 30.28 in    
Wind  
Wind Speed 7 mph (WNW)    
Max Wind Speed 12 mph    
Max Gust Speed 21 mph    
Visibility 10 miles    
Events      
Averages and records for this station are not official NWS values.
T = Trace of Precipitation, MM = Missing Value Source: NWS Daily Summary

Daily Weather History Graph

Daily Weather History Graph

Search for Another Location

Airport or City:

Trip Planner

Search our weather history database for the weather conditions in past years. The results will help you decide how hot, cold, wet, or windy it might be!

Date:

Astronomy

Jan. 24, 2013 Rise Set
Actual Time 6:39 AM CST 5:11 PM CST
Civil Twilight 6:13 AM CST 5:36 PM CST
Nautical Twilight 5:44 AM CST 6:06 PM CST
Astronomical Twilight 5:15 AM CST 6:35 PM CST
Moon 3:14 PM CST (1/24) 4:34 AM CST (1/24)
Length of Visible Light 11h 23m
Length of Day
10h 31m
Waxing Gibbous, 94% of the Moon is Illuminated
Jan 24
Waxing Gibbous
Jan 26
Full
Feb 3
Last Quarter
Feb 10
New
Feb 17
First Quarter

Hourly Weather History & Observations

Time (CST) Temp. Dew Point Humidity Pressure Visibility Wind Dir Wind Speed Gust Speed Precip Events Conditions
12:55 AM 48.2 °F 46.0 °F 92% 30.28 in 10.0 mi SW 5.8 mph - N/A   Clear
1:55 AM 48.7 °F 46.8 °F 93% 30.27 in 10.0 mi SW 4.6 mph - N/A   Clear
2:55 AM 49.5 °F 47.3 °F 92% 30.26 in 10.0 mi WSW 6.9 mph - N/A   Clear
3:55 AM 51.4 °F 48.0 °F 88% 30.26 in 10.0 mi WSW 10.4 mph - N/A   Overcast
4:55 AM 51.4 °F 47.3 °F 86% 30.27 in 10.0 mi West 8.1 mph - N/A   Overcast
5:55 AM 50.4 °F 46.2 °F 86% 30.28 in 10.0 mi WSW 8.1 mph - N/A   Mostly Cloudy
6:55 AM 50.4 °F 45.7 °F 84% 30.28 in 10.0 mi West 5.8 mph - N/A   Clear
7:55 AM 52.9 °F 47.7 °F 82% 30.30 in 10.0 mi West 9.2 mph - N/A   Clear
8:55 AM 58.1 °F 49.8 °F 74% 30.31 in 10.0 mi West 10.4 mph - N/A   Clear
9:55 AM 62.4 °F 51.6 °F 68% 30.32 in 10.0 mi West 11.5 mph - N/A   Partly Cloudy
10:22 AM 64.4 °F 51.8 °F 64% 30.33 in 10.0 mi NW 11.5 mph 20.7 mph N/A   Mostly Cloudy
10:55 AM 63.7 °F 52.3 °F 67% 30.32 in 10.0 mi NW 11.5 mph 19.6 mph N/A   Mostly Cloudy
11:06 AM 64.4 °F 51.8 °F 64% 30.31 in 10.0 mi NW 10.4 mph - N/A   Scattered Clouds
11:55 AM 66.7 °F 52.7 °F 61% 30.29 in 10.0 mi NW 10.4 mph - N/A   Clear
12:55 PM 68.9 °F 53.1 °F 57% 30.26 in 10.0 mi NW 8.1 mph - N/A   Partly Cloudy
1:55 PM 68.0 °F 52.3 °F 57% 30.24 in 10.0 mi WNW 9.2 mph - N/A   Scattered Clouds
2:55 PM 69.4 °F 52.7 °F 55% 30.23 in 10.0 mi West 8.1 mph - N/A   Mostly Cloudy
3:55 PM 68.7 °F 52.3 °F 56% 30.23 in 10.0 mi WNW 8.1 mph - N/A   Partly Cloudy
4:55 PM 66.9 °F 52.2 °F 59% 30.24 in 10.0 mi NW 4.6 mph - N/A   Scattered Clouds
5:55 PM 62.8 °F 51.3 °F 66% 30.25 in 10.0 mi NNW 4.6 mph - N/A   Clear
6:55 PM 60.1 °F 51.6 °F 74% 30.26 in 10.0 mi North 4.6 mph - N/A   Clear
7:55 PM 55.8 °F 50.4 °F 82% 30.27 in 10.0 mi NNE 4.6 mph - N/A   Clear
8:55 PM 54.1 °F 50.0 °F 86% 30.28 in 10.0 mi NE 3.5 mph - N/A   Partly Cloudy
9:55 PM 54.1 °F 50.2 °F 86% 30.29 in 10.0 mi NE 4.6 mph - N/A   Overcast
10:55 PM 51.6 °F 49.1 °F 91% 30.29 in 10.0 mi Calm Calm - N/A   Mostly Cloudy
11:55 PM 51.1 °F 48.9 °F 92% 30.28 in 10.0 mi SSE 4.6 mph - N/A   Clear